Time,TemperatureF,DewpointF,PressureIn,WindDirection,WindDirectionDegrees,WindSpeedMPH,WindSpeedGustMPH,Humidity,HourlyPrecipIn,Conditions,Clouds,dailyrainin,SoftwareType,DateUTC
2013-09-22 00:00:00,86.0,77.0,29.77,SE,140,6.0,-999.0,74,-99.99,,,-99.99,,2013-09-22 00:00:00,
2013-09-22 00:52:00,86.0,77.0,29.77,SE,140,6.0,-999.0,74,-99.99,,,-99.99,,2013-09-22 00:52:00,
2013-09-22 02:00:00,82.0,72.0,29.81,SSW,200,0.0,-999.0,69,-99.99,,,-99.99,,2013-09-22 02:00:00,
2013-09-22 02:42:00,82.0,72.0,29.81,SSW,200,0.0,-999.0,69,-99.99,,,-99.99,,2013-09-22 02:42:00,
2013-09-22 02:52:00,82.0,72.0,29.81,SSW,200,0.0,-999.0,69,-99.99,,,-99.99,,2013-09-22 02:52:00,
2013-09-22 03:00:00,-999.0,-99.9,-100.00,North,360,0.0,-999.0,-999,-99.99,,,-99.99,,2013-09-22 03:00:00,
2013-09-22 03:44:00,81.0,73.0,29.83,North,360,0.0,-999.0,78,-99.99,,,-99.99,,2013-09-22 03:44:00,
2013-09-22 03:54:00,81.0,73.0,29.83,North,360,0.0,-999.0,78,-99.99,,,-99.99,,2013-09-22 03:54:00,
2013-09-22 12:00:00,81.0,75.0,29.77,SSE,150,10.0,-999.0,83,-99.99,,,-99.99,,2013-09-22 12:00:00,
2013-09-22 12:21:00,81.0,75.0,29.77,SSE,150,10.0,-999.0,83,-99.99,,,-99.99,,2013-09-22 12:21:00,
2013-09-22 12:32:00,81.0,75.0,29.77,SSE,150,10.0,-999.0,83,-99.99,,,-99.99,,2013-09-22 12:32:00,
2013-09-22 12:42:00,81.0,75.0,29.77,SSE,150,10.0,-999.0,83,-99.99,,,-99.99,,2013-09-22 12:42:00,
2013-09-22 12:52:00,81.0,75.0,29.77,SSE,150,10.0,-999.0,83,-99.99,,,-99.99,,2013-09-22 12:52:00,
2013-09-22 13:00:00,85.0,79.0,30.06,SE,140,10.0,-999.0,81,-99.99,,,-99.99,,2013-09-22 13:00:00,
2013-09-22 13:42:00,85.0,79.0,30.06,SE,140,10.0,-999.0,81,-99.99,,,-99.99,,2013-09-22 13:42:00,
2013-09-22 13:52:00,85.0,79.0,30.06,SE,140,10.0,-999.0,81,-99.99,,,-99.99,,2013-09-22 13:52:00,
2013-09-22 14:00:00,85.0,81.0,30.08,SE,140,9.0,-999.0,86,-99.99,,,-99.99,,2013-09-22 14:00:00,
2013-09-22 14:52:00,85.0,81.0,30.08,SE,140,9.0,-999.0,86,-99.99,,,-99.99,,2013-09-22 14:52:00,
2013-09-22 15:00:00,88.0,79.0,29.78,SE,140,15.0,-999.0,74,-99.99,,,-99.99,,2013-09-22 15:00:00,
2013-09-22 15:44:00,88.0,79.0,29.78,SE,140,15.0,-999.0,74,-99.99,,,-99.99,,2013-09-22 15:44:00,
2013-09-22 15:54:00,88.0,79.0,29.78,SE,140,15.0,-999.0,74,-99.99,,,-99.99,,2013-09-22 15:54:00,
2013-09-22 16:00:00,91.0,79.0,29.78,SE,140,15.0,-999.0,67,-99.99,,,-99.99,,2013-09-22 16:00:00,
2013-09-22 16:43:00,91.0,79.0,29.78,SE,140,15.0,-999.0,67,-99.99,,,-99.99,,2013-09-22 16:43:00,
2013-09-22 16:54:00,91.0,79.0,29.78,SE,140,15.0,-999.0,67,-99.99,,,-99.99,,2013-09-22 16:54:00,
2013-09-22 17:00:00,88.0,79.0,29.78,SE,140,10.0,-999.0,74,-99.99,,,-99.99,,2013-09-22 17:00:00,
2013-09-22 17:53:00,88.0,79.0,29.78,SE,140,10.0,-999.0,74,-99.99,,,-99.99,,2013-09-22 17:53:00,
2013-09-22 18:00:00,90.0,81.0,29.78,South,170,6.0,-999.0,74,-99.99,,,-99.99,,2013-09-22 18:00:00,
2013-09-22 18:52:00,90.0,81.0,29.78,South,170,6.0,-999.0,74,-99.99,,,-99.99,,2013-09-22 18:52:00,
2013-09-22 21:00:00,88.0,79.0,29.77,South,170,10.0,-999.0,74,-99.99,,,-99.99,,2013-09-22 21:00:00,
2013-09-22 21:54:00,88.0,79.0,29.77,South,170,10.0,-999.0,74,-99.99,,,-99.99,,2013-09-22 21:54:00,
2013-09-22 22:00:00,88.0,79.0,29.72,South,180,10.0,-999.0,74,-99.99,,,-99.99,,2013-09-22 22:00:00,
2013-09-22 22:53:00,88.0,79.0,29.72,South,180,10.0,-999.0,74,-99.99,,,-99.99,,2013-09-22 22:53:00,